Theta_e
308 308 308 307 308 310 311 312 313 313 313 313 313 313 314 314 314 314 315 315 315 316 316 317 317 317 317 319 313 311 321 322 321 323 325 319 323 324 321 331 323 326 329 334 349
308 308 307 308 309 311 312 313 313 313 313 313 313 313 316 316 316 315 315 315 316 317 317 318 319 318 319 318 316 318 323 320 319 319 321 320 320 319 324 324 325 328 342 345 350
308 308 308 309 311 312 313 313 313 313 313 313 313 314 318 316 317 315 315 317 318 318 318 317 316 317 318 316 316 316 321 318 319 318 318 318 319 318 323 325 325 328 335 348 349
308 308 309 310 311 313 313 313 314 313 313 313 313 315 318 315 318 315 317 318 318 318 317 317 319 320 320 319 315 320 317 319 319 318 317 319 318 318 319 320 321 325 340 348 350
308 309 310 311 312 313 313 314 314 313 313 313 313 316 318 316 317 317 318 318 318 318 316 318 320 320 321 318 318 320 318 317 316 316 317 318 318 318 318 316 321 336 345 347 350
309 309 310 312 312 313 313 314 314 313 313 313 313 316 317 317 319 319 319 319 318 318 317 318 319 318 320 319 321 317 318 317 317 317 317 319 318 319 319 317 320 332 341 345 348
309 310 311 311 312 313 313 313 313 313 313 313 313 318 319 319 320 318 319 319 318 318 319 316 317 320 319 320 317 317 320 320 319 317 318 318 318 321 320 319 321 321 320 318 329
309 310 310 311 312 313 313 313 313 312 312 313 314 318 322 320 319 319 319 319 318 318 317 316 317 319 320 318 318 320 319 321 319 318 318 318 320 321 320 322 324 324 324 323 318
308 310 311 311 312 312 312 313 313 313 315 314 314 314 320 319 318 319 319 319 318 318 317 317 318 318 318 321 322 319 321 321 320 318 318 320 319 321 320 323 325 326 326 326 326
307 308 309 310 311 312 314 317 318 318 315 315 314 320 320 321 319 318 318 319 318 319 321 322 321 323 321 321 322 321 320 319 321 319 318 321 322 321 321 323 324 325 326 327 327
307 307 309 310 311 314 318 319 319 320 320 318 317 319 318 320 318 318 318 319 320 320 322 319 323 324 321 318 318 318 321 320 319 318 319 322 322 322 321 322 324 325 326 327 327
306 307 309 311 313 319 319 319 317 319 322 317 317 317 317 318 319 319 319 321 321 321 319 322 322 319 318 318 319 320 320 320 318 318 318 321 322 321 321 321 321 323 324 326 326
309 309 311 314 319 319 320 319 319 318 321 320 319 320 321 319 318 320 320 319 321 321 321 322 319 318 320 319 320 319 320 320 320 318 317 320 321 320 320 321 321 320 322 323 324
312 312 318 319 320 319 319 320 319 318 326 326 324 322 317 318 320 319 318 320 321 322 321 320 317 318 319 319 318 320 317 318 319 319 322 316 321 320 320 321 322 321 321 320 320
313 315 317 320 319 320 320 321 319 321 332 325 319 318 316 319 320 321 318 321 322 321 322 319 318 319 319 318 317 319 316 317 317 319 318 319 319 320 319 321 321 321 321 320 319
315 314 316 317 318 319 320 321 321 329 329 322 318 318 318 318 321 321 321 321 319 321 320 318 318 317 318 317 315 314 316 315 314 317 318 319 319 319 321 321 320 320 321 320 319
316 314 314 315 318 318 321 319 328 330 323 323 322 319 321 322 320 322 322 323 324 326 324 321 320 317 316 315 316 318 317 316 316 316 314 317 318 318 319 319 319 320 318 316 316
316 315 315 317 321 322 320 326 331 324 323 322 321 321 323 322 322 322 322 323 320 322 323 324 323 318 316 316 317 316 318 316 313 315 314 317 317 321 317 315 316 317 316 315 314
318 318 322 321 324 322 326 331 328 324 321 323 321 323 323 322 322 323 323 322 320 319 325 323 321 316 316 316 315 317 319 315 320 317 319 318 319 318 316 317 316 317 316 315 314
323 323 318 319 321 322 330 327 322 321 320 321 324 322 324 322 323 323 323 321 319 318 318 320 322 316 317 314 316 317 315 319 319 322 314 316 318 317 320 318 316 316 315 314 313
322 325 319 318 319 329 329 324 321 318 320 321 321 322 321 322 320 322 323 321 319 318 318 318 320 316 314 316 317 317 317 317 317 319 320 316 314 318 318 318 317 316 315 314 313
316 325 318 317 325 320 328 324 316 318 318 320 320 320 320 319 320 321 322 320 317 317 319 317 318 317 315 313 313 316 317 317 321 317 318 319 318 316 317 317 316 315 314 312 311
321 321 318 316 325 323 320 318 318 318 317 318 319 319 318 320 321 320 319 318 320 318 320 318 320 323 315 318 316 319 318 318 318 317 321 322 318 316 316 316 315 315 311 311 311
319 325 320 317 315 320 321 320 318 316 316 316 318 318 319 319 317 319 319 317 320 320 316 317 317 317 313 315 315 318 319 318 320 325 321 320 319 317 317 316 315 312 311 311 310
313 318 314 321 320 320 318 319 319 318 316 315 316 318 320 320 317 319 318 316 318 319 317 319 317 316 315 315 315 317 319 319 320 320 322 319 319 318 316 315 313 312 311 309 309
315 315 312 316 316 319 317 320 320 316 317 316 318 315 315 319 319 318 318 317 317 316 317 315 317 318 318 317 318 319 319 319 319 319 319 318 318 315 314 313 312 312 310 309 308
304 305 314 313 317 317 320 318 318 316 314 315 316 315 315 315 315 315 316 315 316 318 317 317 317 320 321 319 320 322 318 318 318 318 318 318 315 315 314 312 312 311 310 308 308
Wind_Speed
2 2 3 5 6 6 6 6 6 6 8 9 11 14 16 10 5 6 5 4 6 9 8 4 3 4 4 4 3 1 3 6 4 9 5 1 4 3 2 5 1 2 2 4 8
2 3 5 7 7 6 6 6 6 7 8 10 12 15 12 6 9 8 7 11 11 8 4 4 3 3 4 3 3 3 5 3 2 1 2 1 3 2 4 4 2 3 1 1 11
2 5 8 8 7 6 5 6 6 7 9 11 13 16 8 4 5 4 12 12 11 10 6 5 5 3 5 2 5 2 5 3 2 2 1 2 3 1 7 5 5 8 7 6 11
4 6 8 8 6 5 5 5 6 7 9 11 14 17 7 3 4 4 12 11 10 14 7 10 5 4 4 5 3 6 2 2 1 1 2 3 3 5 6 10 11 6 3 8 12
5 7 7 6 5 4 4 5 6 7 9 11 14 15 4 4 3 7 12 10 7 8 9 3 9 3 6 4 3 7 3 5 2 4 3 4 10 6 16 21 9 2 3 7 11
5 6 6 5 3 3 3 5 6 7 9 11 14 10 4 6 5 10 12 10 9 7 5 5 3 3 5 3 4 5 10 7 6 5 6 9 12 4 15 21 6 7 7 7 9
4 4 4 3 2 2 3 5 6 7 8 9 12 8 3 2 5 8 9 8 9 4 2 2 5 2 3 4 3 6 11 12 13 7 5 4 9 12 16 11 13 12 10 12 14
4 3 2 1 1 3 4 5 6 7 7 8 8 3 1 4 6 7 7 8 9 8 5 4 5 7 3 3 4 4 2 3 9 8 5 6 5 12 16 14 14 12 11 12 14
3 2 1 1 2 4 6 7 6 5 5 4 2 3 2 5 5 7 6 6 5 7 11 9 5 4 3 5 4 4 5 6 2 9 3 6 4 11 11 10 13 13 14 13 13
2 2 1 1 4 6 9 5 0 0 1 2 3 1 4 3 5 7 3 11 6 1 4 7 5 8 6 2 3 3 4 4 3 6 10 11 7 8 11 11 13 12 13 14 15
3 1 1 2 5 8 5 3 2 1 5 2 0 0 2 6 3 6 5 4 5 7 4 6 9 8 7 3 3 5 5 4 2 3 3 8 8 9 10 14 15 13 12 12 13
5 3 2 3 5 8 9 5 2 2 2 2 3 4 4 2 3 5 5 5 8 8 1 4 10 7 4 7 7 4 4 3 1 3 1 4 8 8 11 11 11 11 11 11 11
6 4 4 3 3 5 12 6 6 5 1 3 2 2 1 4 2 3 3 2 7 12 13 11 4 5 10 10 7 5 3 1 2 2 5 8 5 4 5 6 8 11 10 11 11
5 3 4 3 3 2 3 14 3 8 2 3 1 1 2 3 3 3 4 2 3 5 5 7 3 9 11 7 2 2 2 3 5 3 6 2 4 4 4 4 7 8 9 10 11
4 1 3 5 2 2 5 10 3 1 3 0 2 1 2 2 3 4 8 4 4 3 2 4 7 7 10 3 2 2 3 2 3 6 2 2 4 6 6 3 3 5 7 9 10
5 3 1 1 2 3 11 2 2 1 3 2 2 1 3 3 2 1 4 7 2 4 8 5 2 4 3 2 4 3 1 2 2 1 4 4 3 6 5 3 2 2 6 8 9
4 4 3 2 1 8 8 2 2 2 2 3 2 2 5 4 3 4 4 4 1 1 2 3 3 1 3 1 3 7 4 2 2 2 3 3 6 3 3 2 2 1 3 5 6
4 5 3 3 5 5 2 2 3 1 1 1 2 6 4 4 3 3 2 3 6 2 2 0 3 6 6 4 2 4 3 1 4 3 7 5 5 2 4 4 3 2 2 3 6
3 4 4 7 3 4 3 2 2 2 1 1 3 2 2 1 2 2 2 2 3 3 1 1 3 2 8 4 3 2 2 2 0 1 4 1 1 5 6 3 4 4 4 8 11
2 3 5 5 3 3 3 2 1 1 0 1 2 2 1 3 1 1 1 2 3 3 2 2 1 1 2 1 9 4 5 0 2 3 6 3 4 7 8 4 2 4 7 9 12
3 2 5 3 2 4 2 2 2 3 1 3 2 2 2 1 2 1 2 2 2 4 5 2 0 3 2 2 2 3 2 3 1 2 3 6 3 1 4 3 5 10 9 14 16
3 1 8 1 2 1 2 2 1 2 5 4 4 3 1 1 2 1 2 2 4 2 2 2 2 0 1 3 3 1 2 2 1 1 4 5 8 1 4 3 5 8 12 16 16
2 2 5 2 2 1 1 2 2 2 3 2 3 2 1 2 1 1 2 2 3 2 4 5 1 0 2 3 3 4 3 3 2 1 7 7 5 3 3 5 8 11 15 16 18
1 1 3 4 2 2 2 2 3 3 3 4 3 2 3 2 2 3 3 2 2 3 6 4 3 4 4 4 1 4 6 8 5 4 11 13 21 16 12 15 13 16 18 19 20
4 2 1 2 3 2 1 1 4 4 2 1 2 2 4 3 2 3 3 2 2 4 3 1 3 4 7 8 6 8 10 9 11 14 9 16 15 16 15 12 14 15 18 22 24
2 1 1 1 2 1 1 3 5 3 4 2 4 5 3 3 3 5 5 3 3 3 2 1 2 1 4 4 6 10 11 11 13 11 10 11 16 8 12 13 17 18 21 23 24
3 1 1 1 1 1 1 1 4 6 2 0 6 5 3 1 2 1 2 4 2 4 4 3 4 2 3 3 7 11 6 5 3 4 6 9 16 14 12 18 18 18 21 23 24
Wind_Direction
8 39 77 102 104 96 77 66 57 44 28 19 11 1 352 4 75 71 50 7 345 336 337 346 57 77 73 77 56 154 94 117 133 174 157 120 134 167 47 146 12 335 284 335 137
55 88 111 115 110 95 78 66 51 35 23 16 8 1 5 45 93 61 21 2 354 343 14 56 70 77 69 44 30 42 99 115 146 153 181 83 68 124 173 149 254 255 163 60 151
102 119 122 120 113 98 79 60 43 29 18 10 7 4 16 34 66 26 10 13 28 34 60 77 96 67 73 34 13 49 90 146 114 131 124 68 93 100 142 199 208 198 174 172 168
121 127 128 125 115 96 72 51 33 21 13 7 5 6 27 47 79 352 7 24 32 35 52 43 49 65 72 77 3 103 84 45 102 148 201 140 98 92 26 334 306 230 125 179 190
136 138 137 131 113 86 59 37 20 13 7 5 5 5 46 60 59 355 6 22 32 32 42 54 52 82 82 93 97 81 49 43 357 12 48 66 49 60 30 349 340 122 184 204 207
146 148 145 133 104 65 37 17 6 0 356 359 0 13 76 86 342 358 3 23 35 34 40 46 78 108 92 82 63 78 82 55 13 342 48 79 39 34 356 335 6 9 328 291 265
146 156 156 137 71 28 6 353 347 344 342 350 355 14 69 82 350 358 358 2 7 7 83 93 125 121 138 119 91 135 94 59 27 349 76 138 48 10 344 1 34 13 349 329 272
148 159 158 142 345 343 336 328 323 321 328 337 350 18 84 8 358 15 0 -0 37 53 109 110 102 91 37 116 62 108 79 101 17 0 54 204 105 29 358 10 31 18 0 341 331
151 160 171 270 328 329 324 316 309 309 321 337 1 33 38 10 41 2 9 356 37 70 68 95 71 66 85 124 116 39 109 105 101 25 333 26 86 23 27 35 41 24 12 9 358
121 171 200 302 332 332 326 320 27 124 355 17 39 131 20 350 321 341 15 36 38 54 60 36 59 59 43 78 99 97 114 89 98 18 76 79 74 32 38 62 55 37 28 22 21
55 125 197 336 349 350 26 117 13 28 41 75 110 65 301 315 349 7 2 44 30 57 78 26 62 40 0 27 95 111 108 115 154 56 98 93 89 46 34 46 47 47 31 24 26
50 85 77 28 15 27 54 71 84 84 327 38 278 288 265 284 21 2 17 65 43 52 121 85 41 355 79 95 78 96 109 57 250 27 153 159 96 62 47 47 43 42 41 30 26
46 71 69 34 49 65 67 53 318 200 61 321 244 245 283 159 83 4 28 98 79 69 66 86 49 65 77 65 80 61 90 160 279 4 86 149 156 124 68 58 55 51 53 48 36
28 61 39 31 83 41 53 354 10 163 82 0 117 138 138 144 67 1 38 84 65 110 99 73 28 63 67 65 339 235 343 290 279 250 282 232 289 169 124 82 55 40 40 37 31
8 45 35 54 72 63 333 340 126 165 111 68 87 97 54 126 132 50 28 37 86 87 214 94 60 58 57 46 315 53 342 324 302 244 273 163 248 138 192 146 73 33 34 33 30
349 205 257 29 49 7 341 332 133 216 117 94 24 90 123 29 59 71 53 48 91 81 64 106 85 33 356 95 44 309 210 80 87 189 238 129 324 177 188 179 156 38 27 18 14
8 182 192 354 358 332 342 70 133 88 304 20 40 23 88 25 53 30 33 39 2 172 142 110 57 5 9 42 47 21 352 332 207 226 308 141 281 4 148 86 29 40 37 27 23
62 135 128 25 334 343 31 83 86 161 55 65 63 78 83 9 50 42 83 114 50 65 111 220 197 6 356 28 348 39 4 309 293 285 308 279 256 117 111 82 73 89 40 18 357
102 108 88 355 15 2 84 77 137 179 190 98 95 83 97 65 108 94 61 88 32 7 134 175 132 79 61 40 343 87 74 16 245 236 263 241 194 199 176 91 52 21 335 343 344
54 91 24 4 21 50 83 124 106 265 36 80 103 355 111 14 155 93 128 45 107 42 350 128 190 57 86 264 56 67 122 206 36 306 295 239 268 286 202 234 265 297 318 327 323
43 89 359 348 51 56 110 153 144 40 133 44 111 102 90 66 51 83 71 65 43 57 72 102 85 132 219 48 119 144 125 77 359 256 278 304 300 148 267 195 337 332 323 322 324
29 117 353 103 52 24 127 156 315 77 48 78 87 95 123 91 72 109 131 45 349 118 82 61 121 100 34 316 292 248 149 121 167 232 245 282 289 32 170 152 329 309 319 322 318
38 299 348 23 147 113 196 110 87 108 48 95 106 67 60 111 132 129 110 66 14 109 159 172 55 7 169 158 177 239 192 147 121 204 245 275 272 177 194 273 314 318 323 317 317
7 344 354 54 26 109 139 134 115 44 84 76 114 129 119 120 38 152 142 51 28 86 81 112 146 219 249 295 128 224 223 211 239 251 285 266 289 299 310 326 326 328 325 321 321
14 69 37 6 55 38 2 148 154 163 86 84 102 158 157 155 155 181 169 150 81 140 76 148 237 204 253 253 230 257 260 263 250 273 270 294 296 305 321 317 319 319 316 322 321
37 6 75 73 306 289 344 206 202 152 162 176 156 149 148 171 209 197 180 210 198 137 122 36 204 217 269 275 243 260 267 273 278 279 264 283 295 345 315 308 321 322 319 321 319
36 54 278 65 50 217 225 207 215 153 67 103 153 136 188 205 157 108 130 97 135 174 153 173 162 188 261 351 316 276 273 210 265 244 283 288 313 319 311 316 322 314 316 317 318